Year,Month,Day,Hour,Minute,Value (Times are PST for temperature in C)
2005,06,20,00,00,15.40
2005,06,20,00,01,15.40
2005,06,20,00,02,15.40
2005,06,20,00,03,15.30
2005,06,20,00,04,15.30
2005,06,20,00,05,15.30
2005,06,20,00,06,15.30
2005,06,20,00,07,15.30
2005,06,20,00,08,15.30
2005,06,20,00,09,15.30
2005,06,20,00,10,15.30
2005,06,20,00,11,15.20
2005,06,20,00,12,15.20
2005,06,20,00,13,15.20
2005,06,20,00,14,15.20
2005,06,20,00,15,15.20
2005,06,20,00,16,15.20
2005,06,20,00,17,15.20
2005,06,20,00,18,15.20
2005,06,20,00,19,15.20
2005,06,20,00,20,15.20
2005,06,20,00,21,15.20
2005,06,20,00,22,15.20
2005,06,20,00,23,15.20
2005,06,20,00,24,15.10
2005,06,20,00,25,15.10
2005,06,20,00,26,15.10
2005,06,20,00,27,15.10
2005,06,20,00,28,15.10
2005,06,20,00,29,15.10
2005,06,20,00,30,15.00
2005,06,20,00,31,15.00
2005,06,20,00,32,15.00
2005,06,20,00,33,14.90
2005,06,20,00,34,14.90
2005,06,20,00,35,14.90
2005,06,20,00,36,14.90
2005,06,20,00,37,14.80
2005,06,20,00,38,14.80
2005,06,20,00,39,14.80
2005,06,20,00,40,14.80
2005,06,20,00,41,14.80
2005,06,20,00,42,14.80
2005,06,20,00,43,14.80
2005,06,20,00,44,14.70
2005,06,20,00,45,14.70
2005,06,20,00,46,14.70
2005,06,20,00,47,14.60
2005,06,20,00,48,14.60
2005,06,20,00,49,14.60
2005,06,20,00,50,14.60
2005,06,20,00,51,14.60
2005,06,20,00,52,14.60
2005,06,20,00,53,14.50
2005,06,20,00,54,14.50
2005,06,20,00,55,14.50
2005,06,20,00,56,14.50
2005,06,20,00,57,14.50
2005,06,20,00,58,14.50
2005,06,20,00,59,14.50
2005,06,20,01,00,14.50
2005,06,20,01,01,14.50
2005,06,20,01,02,14.50
2005,06,20,01,03,14.40
2005,06,20,01,04,14.40
2005,06,20,01,05,14.40
2005,06,20,01,06,14.40
2005,06,20,01,07,14.40
2005,06,20,01,08,14.30
2005,06,20,01,09,14.30
2005,06,20,01,10,14.20
2005,06,20,01,11,14.20
2005,06,20,01,12,14.20
2005,06,20,01,13,14.20
2005,06,20,01,14,14.20
2005,06,20,01,15,14.10
2005,06,20,01,16,14.10
2005,06,20,01,17,14.00
2005,06,20,01,18,14.00
2005,06,20,01,19,14.00
2005,06,20,01,20,13.90
2005,06,20,01,21,13.90
2005,06,20,01,22,13.90
2005,06,20,01,23,13.90
2005,06,20,01,24,13.80
2005,06,20,01,25,13.80
2005,06,20,01,26,13.80
2005,06,20,01,27,13.80
2005,06,20,01,28,13.80
2005,06,20,01,29,13.80
2005,06,20,01,30,13.80
2005,06,20,01,31,13.80
2005,06,20,01,32,13.80
2005,06,20,01,33,13.80
2005,06,20,01,34,13.80
2005,06,20,01,35,13.70
2005,06,20,01,36,13.70
2005,06,20,01,37,13.70
2005,06,20,01,38,13.70
2005,06,20,01,39,13.70
2005,06,20,01,40,13.70
2005,06,20,01,41,13.70
2005,06,20,01,42,13.70
2005,06,20,01,43,13.70
2005,06,20,01,44,13.70
2005,06,20,01,45,13.70
2005,06,20,01,46,13.70
2005,06,20,01,47,13.70
2005,06,20,01,48,13.70
2005,06,20,01,49,13.70
2005,06,20,01,50,13.60
2005,06,20,01,51,13.60
2005,06,20,01,52,13.60
2005,06,20,01,53,13.60
2005,06,20,01,54,13.60
2005,06,20,01,55,13.60
2005,06,20,01,56,13.60
2005,06,20,01,57,13.60
2005,06,20,01,58,13.60
2005,06,20,01,59,13.60
2005,06,20,02,00,13.50
2005,06,20,02,01,13.50
2005,06,20,02,02,13.50
2005,06,20,02,03,13.50
2005,06,20,02,04,13.50
2005,06,20,02,05,13.50
2005,06,20,02,06,13.50
2005,06,20,02,07,13.50
2005,06,20,02,08,13.50
2005,06,20,02,09,13.50
2005,06,20,02,10,13.40
2005,06,20,02,11,13.40
2005,06,20,02,12,13.40
2005,06,20,02,13,13.40
2005,06,20,02,14,13.40
2005,06,20,02,15,13.40
2005,06,20,02,16,13.40
2005,06,20,02,17,13.40
2005,06,20,02,18,13.40
2005,06,20,02,19,13.40
2005,06,20,02,20,13.40
2005,06,20,02,21,13.40
2005,06,20,02,22,13.30
2005,06,20,02,23,13.30
2005,06,20,02,24,13.30
2005,06,20,02,25,13.30
2005,06,20,02,26,13.30
2005,06,20,02,27,13.30
2005,06,20,02,28,13.30
2005,06,20,02,29,13.30
2005,06,20,02,30,13.30
2005,06,20,02,31,13.30
2005,06,20,02,32,13.30
2005,06,20,02,33,13.30
2005,06,20,02,34,13.20
2005,06,20,02,35,13.20
2005,06,20,02,36,13.20
2005,06,20,02,37,13.10
2005,06,20,02,38,13.10
2005,06,20,02,39,13.10
2005,06,20,02,40,13.10
2005,06,20,02,41,13.00
2005,06,20,02,42,13.00
2005,06,20,02,43,13.00
2005,06,20,02,44,13.00
2005,06,20,02,45,13.00
2005,06,20,02,46,13.00
2005,06,20,02,47,13.00
2005,06,20,02,48,13.00
2005,06,20,02,49,12.90
2005,06,20,02,50,12.90
2005,06,20,02,51,12.90
2005,06,20,02,52,12.90
2005,06,20,02,53,12.90
2005,06,20,02,54,12.90
2005,06,20,02,55,12.90
2005,06,20,02,56,12.90
2005,06,20,02,57,12.90
2005,06,20,02,58,12.80
2005,06,20,02,59,12.80
2005,06,20,03,00,12.80
2005,06,20,03,01,12.80
2005,06,20,03,02,12.80
2005,06,20,03,03,12.80
2005,06,20,03,04,12.80
2005,06,20,03,05,12.80
2005,06,20,03,06,12.80
2005,06,20,03,07,12.80
2005,06,20,03,08,12.80
2005,06,20,03,09,12.80
2005,06,20,03,10,12.80
2005,06,20,03,11,12.80
2005,06,20,03,12,12.80
2005,06,20,03,13,12.80
2005,06,20,03,14,12.80
2005,06,20,03,15,12.70
2005,06,20,03,16,12.70
2005,06,20,03,17,12.70
2005,06,20,03,18,12.70
2005,06,20,03,19,12.70
2005,06,20,03,20,12.70
2005,06,20,03,21,12.70
2005,06,20,03,22,12.70
2005,06,20,03,23,12.70
2005,06,20,03,24,12.70
2005,06,20,03,25,12.60
2005,06,20,03,26,12.60
2005,06,20,03,27,12.60
2005,06,20,03,28,12.60
2005,06,20,03,29,12.60
2005,06,20,03,30,12.60
2005,06,20,03,31,12.50
2005,06,20,03,32,12.50
2005,06,20,03,33,12.50
2005,06,20,03,34,12.50
2005,06,20,03,35,12.50
2005,06,20,03,36,12.50
2005,06,20,03,37,12.50
2005,06,20,03,38,12.50
2005,06,20,03,39,12.50
2005,06,20,03,40,12.50
2005,06,20,03,41,12.40
2005,06,20,03,42,12.40
2005,06,20,03,43,12.40
2005,06,20,03,44,12.40
2005,06,20,03,45,12.40
2005,06,20,03,46,12.40
2005,06,20,03,47,12.40
2005,06,20,03,48,12.30
2005,06,20,03,49,12.30
2005,06,20,03,50,12.30
2005,06,20,03,51,12.30
2005,06,20,03,52,12.30
2005,06,20,03,53,12.30
2005,06,20,03,54,12.30
2005,06,20,03,55,12.30
2005,06,20,03,56,12.30
2005,06,20,03,57,12.30
2005,06,20,03,58,12.30
2005,06,20,03,59,12.30
2005,06,20,04,00,12.30
2005,06,20,04,01,12.30
2005,06,20,04,02,12.20
2005,06,20,04,03,12.20
2005,06,20,04,04,12.20
2005,06,20,04,05,12.20
2005,06,20,04,06,12.20
2005,06,20,04,07,12.20
2005,06,20,04,08,12.10
2005,06,20,04,09,12.10
2005,06,20,04,10,12.10
2005,06,20,04,11,12.10
2005,06,20,04,12,12.10
2005,06,20,04,13,12.10
2005,06,20,04,14,12.10
2005,06,20,04,15,12.10
2005,06,20,04,16,12.00
2005,06,20,04,17,12.00
2005,06,20,04,18,12.00
2005,06,20,04,19,12.00
2005,06,20,04,20,12.00
2005,06,20,04,21,12.00
2005,06,20,04,22,12.00
2005,06,20,04,23,12.00
2005,06,20,04,24,12.00
2005,06,20,04,25,11.90
2005,06,20,04,26,11.90
2005,06,20,04,27,11.90
2005,06,20,04,28,11.90
2005,06,20,04,29,11.90
2005,06,20,04,30,11.80
2005,06,20,04,31,11.80
2005,06,20,04,32,11.80
2005,06,20,04,33,11.80
2005,06,20,04,34,11.80
2005,06,20,04,35,11.80
2005,06,20,04,36,11.80
2005,06,20,04,37,11.80
2005,06,20,04,38,11.80
2005,06,20,04,39,11.80
2005,06,20,04,40,11.80
2005,06,20,04,41,11.80
2005,06,20,04,42,11.80
2005,06,20,04,43,11.80
2005,06,20,04,44,11.80
2005,06,20,04,45,11.80
2005,06,20,04,46,11.70
2005,06,20,04,47,11.70
2005,06,20,04,48,11.70
2005,06,20,04,49,11.70
2005,06,20,04,50,11.70
2005,06,20,04,51,11.70
2005,06,20,04,52,11.70
2005,06,20,04,53,11.70
2005,06,20,04,54,11.80
2005,06,20,04,55,11.80
2005,06,20,04,56,11.80
2005,06,20,04,57,11.80
2005,06,20,04,58,11.80
2005,06,20,04,59,11.80
2005,06,20,05,00,11.80
2005,06,20,05,01,11.80
2005,06,20,05,02,11.80
2005,06,20,05,03,11.80
2005,06,20,05,04,11.70
2005,06,20,05,05,11.70
2005,06,20,05,06,11.70
2005,06,20,05,07,11.70
2005,06,20,05,08,11.70
2005,06,20,05,09,11.70
2005,06,20,05,10,11.70
2005,06,20,05,11,11.70
2005,06,20,05,12,11.70
2005,06,20,05,13,11.60
2005,06,20,05,14,11.60
2005,06,20,05,15,11.60
2005,06,20,05,16,11.60
2005,06,20,05,17,11.60
2005,06,20,05,18,11.60
2005,06,20,05,19,11.60
2005,06,20,05,20,11.60
2005,06,20,05,21,11.60
2005,06,20,05,22,11.60
2005,06,20,05,23,11.60
2005,06,20,05,24,11.60
2005,06,20,05,25,11.60
2005,06,20,05,26,11.60
2005,06,20,05,27,11.60
2005,06,20,05,28,11.60
2005,06,20,05,29,11.60
2005,06,20,05,30,11.60
2005,06,20,05,31,11.60
2005,06,20,05,32,11.60
2005,06,20,05,33,11.60
2005,06,20,05,34,11.60
2005,06,20,05,35,11.60
2005,06,20,05,36,11.60
2005,06,20,05,37,11.60
2005,06,20,05,38,11.60
2005,06,20,05,39,11.60
2005,06,20,05,40,11.60
2005,06,20,05,41,11.60
2005,06,20,05,42,11.70
2005,06,20,05,43,11.70
2005,06,20,05,44,11.70
2005,06,20,05,45,11.80
2005,06,20,05,46,11.80
2005,06,20,05,47,11.80
2005,06,20,05,48,11.80
2005,06,20,05,49,11.80
2005,06,20,05,50,11.80
2005,06,20,05,51,11.90
2005,06,20,05,52,11.90
2005,06,20,05,53,11.90
2005,06,20,05,54,11.90
2005,06,20,05,55,11.90
2005,06,20,05,56,12.00
2005,06,20,05,57,12.00
2005,06,20,05,58,12.00
2005,06,20,05,59,12.00
2005,06,20,06,00,12.00
2005,06,20,06,01,12.10
2005,06,20,06,02,12.10
2005,06,20,06,03,12.10
2005,06,20,06,04,12.20
2005,06,20,06,05,12.30
2005,06,20,06,06,12.30
2005,06,20,06,07,12.40
2005,06,20,06,08,12.40
2005,06,20,06,09,12.50
2005,06,20,06,10,12.50
2005,06,20,06,11,12.60
2005,06,20,06,12,12.70
2005,06,20,06,13,12.80
2005,06,20,06,14,12.90
2005,06,20,06,15,13.00
2005,06,20,06,16,13.00
2005,06,20,06,17,13.10
2005,06,20,06,18,13.20
2005,06,20,06,19,13.20
2005,06,20,06,20,13.30
2005,06,20,06,21,13.30
2005,06,20,06,22,13.40
2005,06,20,06,23,13.50
2005,06,20,06,24,13.60
2005,06,20,06,25,13.60
2005,06,20,06,26,13.60
2005,06,20,06,27,13.70
2005,06,20,06,28,13.70
2005,06,20,06,29,13.70
2005,06,20,06,30,13.80
2005,06,20,06,31,13.90
2005,06,20,06,32,13.90
2005,06,20,06,33,14.00
2005,06,20,06,34,14.00
2005,06,20,06,35,14.10
2005,06,20,06,36,14.10
2005,06,20,06,37,14.20
2005,06,20,06,38,14.20
2005,06,20,06,39,14.20
2005,06,20,06,40,14.30
2005,06,20,06,41,14.30
2005,06,20,06,42,14.40
2005,06,20,06,43,14.40
2005,06,20,06,44,14.40
2005,06,20,06,45,14.40
2005,06,20,06,46,14.40
2005,06,20,06,47,14.40
2005,06,20,06,48,14.40
2005,06,20,06,49,14.50
2005,06,20,06,50,14.50
2005,06,20,06,51,14.60
2005,06,20,06,52,14.60
2005,06,20,06,53,14.60
2005,06,20,06,54,14.70
2005,06,20,06,55,14.70
2005,06,20,06,56,14.80
2005,06,20,06,57,14.80
2005,06,20,06,58,14.80
2005,06,20,06,59,14.80
2005,06,20,07,00,14.90
2005,06,20,07,01,15.00
2005,06,20,07,02,15.00
2005,06,20,07,03,15.10
2005,06,20,07,04,15.20
2005,06,20,07,05,15.20
2005,06,20,07,06,15.30
2005,06,20,07,07,15.30
2005,06,20,07,08,15.30
2005,06,20,07,09,15.40
2005,06,20,07,10,15.50
2005,06,20,07,11,15.60
2005,06,20,07,12,15.70
2005,06,20,07,13,15.80
2005,06,20,07,14,15.80
2005,06,20,07,15,15.90
2005,06,20,07,16,16.00
2005,06,20,07,17,16.10
2005,06,20,07,18,16.20
2005,06,20,07,19,16.30
2005,06,20,07,20,16.40
2005,06,20,07,21,16.50
2005,06,20,07,22,16.60
2005,06,20,07,23,16.70
2005,06,20,07,24,16.80
2005,06,20,07,25,16.90
2005,06,20,07,26,17.00
2005,06,20,07,27,17.10
2005,06,20,07,28,17.20
2005,06,20,07,29,17.30
2005,06,20,07,30,17.30
2005,06,20,07,31,17.40
2005,06,20,07,32,17.50
2005,06,20,07,33,17.50
2005,06,20,07,34,17.50
2005,06,20,07,35,17.70
2005,06,20,07,36,17.90
2005,06,20,07,37,17.90
2005,06,20,07,38,18.10
2005,06,20,07,39,18.10
2005,06,20,07,40,18.20
2005,06,20,07,41,18.20
2005,06,20,07,42,18.20
2005,06,20,07,43,18.30
2005,06,20,07,44,18.30
2005,06,20,07,45,18.40
2005,06,20,07,46,18.50
2005,06,20,07,47,18.60
2005,06,20,07,48,18.60
2005,06,20,07,49,18.70
2005,06,20,07,50,18.70
2005,06,20,07,51,18.80
2005,06,20,07,52,18.80
2005,06,20,07,53,18.90
2005,06,20,07,54,18.90
2005,06,20,07,55,18.80
2005,06,20,07,56,18.80
2005,06,20,07,57,18.90
2005,06,20,07,58,18.90
2005,06,20,07,59,18.90
2005,06,20,08,00,18.90
2005,06,20,08,01,18.90
2005,06,20,08,02,18.90
2005,06,20,08,03,18.90
2005,06,20,08,04,18.80
2005,06,20,08,05,18.80
2005,06,20,08,06,18.80
2005,06,20,08,07,18.80
2005,06,20,08,08,18.80
2005,06,20,08,09,18.80
2005,06,20,08,10,18.70
2005,06,20,08,11,18.70
2005,06,20,08,12,18.70
2005,06,20,08,13,18.70
2005,06,20,08,14,18.70
2005,06,20,08,15,18.70
2005,06,20,08,16,18.70
2005,06,20,08,17,18.80
2005,06,20,08,18,18.80
2005,06,20,08,19,18.90
2005,06,20,08,20,18.90
2005,06,20,08,21,19.00
2005,06,20,08,22,19.10
2005,06,20,08,23,19.10
2005,06,20,08,24,19.20
2005,06,20,08,25,19.30
2005,06,20,08,26,19.30
2005,06,20,08,27,19.40
2005,06,20,08,28,19.40
2005,06,20,08,29,19.50
2005,06,20,08,30,19.60
2005,06,20,08,31,19.60
2005,06,20,08,32,19.60
2005,06,20,08,33,19.60
2005,06,20,08,34,19.60
2005,06,20,08,35,19.60
2005,06,20,08,36,19.60
2005,06,20,08,37,19.60
2005,06,20,08,38,19.60
2005,06,20,08,40,19.60
2005,06,20,08,41,19.60
2005,06,20,08,42,19.60
2005,06,20,08,43,19.50
2005,06,20,08,44,19.60
2005,06,20,08,45,19.60
2005,06,20,08,46,19.70
2005,06,20,08,47,19.80
2005,06,20,08,48,19.80
2005,06,20,08,49,19.80
2005,06,20,08,50,19.90
2005,06,20,08,51,19.90
2005,06,20,08,52,19.80
2005,06,20,08,53,19.80
2005,06,20,08,54,19.80
2005,06,20,08,55,19.80
2005,06,20,08,56,19.90
2005,06,20,08,57,19.90
2005,06,20,08,58,19.90
2005,06,20,08,59,20.10
2005,06,20,09,00,20.20
2005,06,20,09,02,20.20
2005,06,20,09,03,20.20
2005,06,20,09,04,20.20
2005,06,20,09,05,20.20
2005,06,20,09,06,20.20
2005,06,20,09,07,20.20
2005,06,20,09,08,20.30
2005,06,20,09,09,20.30
2005,06,20,09,10,20.40
2005,06,20,09,11,20.40
2005,06,20,09,12,20.50
2005,06,20,09,13,20.50
2005,06,20,09,14,20.50
2005,06,20,09,15,20.50
2005,06,20,09,16,20.60
2005,06,20,09,17,20.60
2005,06,20,09,18,20.60
2005,06,20,09,19,20.70
2005,06,20,09,20,20.70
2005,06,20,09,21,20.80
2005,06,20,09,22,20.80
2005,06,20,09,23,20.90
2005,06,20,09,24,20.90
2005,06,20,09,25,21.00
2005,06,20,09,26,21.10
2005,06,20,09,27,21.10
2005,06,20,09,28,21.20
2005,06,20,09,30,21.20
2005,06,20,09,31,21.30
2005,06,20,09,32,21.30
2005,06,20,09,33,21.30
2005,06,20,09,34,21.30
2005,06,20,09,37,21.40
2005,06,20,09,38,21.40
2005,06,20,09,39,21.40
2005,06,20,09,40,21.30
2005,06,20,09,41,21.30
2005,06,20,09,42,21.30
2005,06,20,09,43,21.30
2005,06,20,09,45,21.30
2005,06,20,09,46,21.20
2005,06,20,09,47,21.20
2005,06,20,09,48,21.10
2005,06,20,09,49,21.10
2005,06,20,09,50,21.20
2005,06,20,09,51,21.20
2005,06,20,09,52,21.20
2005,06,20,09,53,21.30
2005,06,20,09,54,21.30
2005,06,20,09,55,21.30
2005,06,20,09,56,21.30
2005,06,20,09,57,21.30
2005,06,20,09,58,21.30
2005,06,20,09,59,21.30
2005,06,20,10,00,21.30
2005,06,20,10,01,21.30
2005,06,20,10,02,21.30
2005,06,20,10,03,21.40
2005,06,20,10,04,21.40
2005,06,20,10,05,21.30
2005,06,20,10,06,21.30
2005,06,20,10,07,21.30
2005,06,20,10,08,21.30
2005,06,20,10,09,21.30
2005,06,20,10,10,21.30
2005,06,20,10,11,21.30
2005,06,20,10,12,21.30
2005,06,20,10,13,21.30
2005,06,20,10,14,21.40
2005,06,20,10,17,21.30
2005,06,20,10,18,21.40
2005,06,20,10,19,21.50
2005,06,20,10,20,21.60
2005,06,20,10,21,21.70
2005,06,20,10,22,21.80
2005,06,20,10,23,21.70
2005,06,20,10,24,21.70
2005,06,20,10,25,21.80
2005,06,20,10,26,21.80
2005,06,20,10,27,21.80
2005,06,20,10,28,21.80
2005,06,20,10,29,21.80
2005,06,20,10,30,21.80
2005,06,20,10,31,21.70
2005,06,20,10,32,21.70
2005,06,20,10,33,21.70
2005,06,20,10,34,21.70
2005,06,20,10,35,21.80
2005,06,20,10,36,21.80
2005,06,20,10,37,21.70
2005,06,20,10,38,21.60
2005,06,20,10,39,21.70
2005,06,20,10,40,21.80
2005,06,20,10,41,22.00
2005,06,20,10,42,22.00
2005,06,20,10,43,22.10
2005,06,20,10,44,22.10
2005,06,20,10,45,22.00
2005,06,20,10,46,22.00
2005,06,20,10,47,21.90
2005,06,20,10,48,21.90
2005,06,20,10,49,21.90
2005,06,20,10,50,21.90
2005,06,20,10,51,21.80
2005,06,20,10,52,21.90
2005,06,20,10,53,21.90
2005,06,20,10,54,22.00
2005,06,20,10,55,22.00
2005,06,20,10,56,22.10
2005,06,20,10,57,22.10
2005,06,20,10,58,22.00
2005,06,20,10,59,22.10
2005,06,20,11,00,22.10
2005,06,20,11,01,22.10
2005,06,20,11,02,22.00
2005,06,20,11,03,22.00
2005,06,20,11,04,22.00
2005,06,20,11,05,22.10
2005,06,20,11,06,22.20
2005,06,20,11,07,22.20
2005,06,20,11,08,22.30
2005,06,20,11,09,22.30
2005,06,20,11,10,22.40
2005,06,20,11,11,22.50
2005,06,20,11,12,22.50
2005,06,20,11,13,22.50
2005,06,20,11,14,22.60
2005,06,20,11,15,22.70
2005,06,20,11,16,22.70
2005,06,20,11,17,22.60
2005,06,20,11,18,22.60
2005,06,20,11,19,22.60
2005,06,20,11,20,22.70
2005,06,20,11,21,22.70
2005,06,20,11,22,22.60
2005,06,20,11,23,22.50
2005,06,20,11,24,22.40
2005,06,20,11,25,22.40
2005,06,20,11,26,22.40
2005,06,20,11,27,22.30
2005,06,20,11,28,22.30
2005,06,20,11,29,22.30
2005,06,20,11,30,22.30
2005,06,20,11,31,22.30
2005,06,20,11,32,22.40
2005,06,20,11,33,22.40
2005,06,20,11,34,22.50
2005,06,20,11,35,22.50
2005,06,20,11,36,22.50
2005,06,20,11,37,22.60
2005,06,20,11,38,22.60
2005,06,20,11,39,22.70
2005,06,20,11,40,22.70
2005,06,20,11,41,22.60
2005,06,20,11,42,22.60
2005,06,20,11,43,22.50
2005,06,20,11,44,22.40
2005,06,20,11,45,22.40
2005,06,20,11,46,22.40
2005,06,20,11,47,22.40
2005,06,20,11,48,22.30
2005,06,20,11,49,22.30
2005,06,20,11,50,22.30
2005,06,20,11,51,22.40
2005,06,20,11,52,22.50
2005,06,20,11,53,22.70
2005,06,20,11,54,22.70
2005,06,20,11,55,22.70
2005,06,20,11,56,22.80
2005,06,20,11,57,22.70
2005,06,20,11,58,22.60
2005,06,20,11,59,22.40
2005,06,20,12,00,22.30
2005,06,20,12,01,22.40
2005,06,20,12,02,22.50
2005,06,20,12,03,22.50
2005,06,20,12,04,22.60
2005,06,20,12,05,22.60
2005,06,20,12,06,22.70
2005,06,20,12,07,22.80
2005,06,20,12,08,22.90
2005,06,20,12,09,22.80
2005,06,20,12,10,22.80
2005,06,20,12,11,22.90
2005,06,20,12,12,23.00
2005,06,20,12,13,23.10
2005,06,20,12,14,23.10
2005,06,20,12,15,23.00
2005,06,20,12,16,22.90
2005,06,20,12,17,22.80
2005,06,20,12,18,22.70
2005,06,20,12,19,22.60
2005,06,20,12,20,22.60
2005,06,20,12,21,22.60
2005,06,20,12,22,22.60
2005,06,20,12,23,22.60
2005,06,20,12,24,22.60
2005,06,20,12,25,22.60
2005,06,20,12,26,22.60
2005,06,20,12,27,22.60
2005,06,20,12,28,22.70
2005,06,20,12,29,22.70
2005,06,20,12,30,22.80
2005,06,20,12,31,22.90
2005,06,20,12,32,22.90
2005,06,20,12,33,22.90
2005,06,20,12,34,22.80
2005,06,20,12,35,22.80
2005,06,20,12,36,22.80
2005,06,20,12,37,22.90
2005,06,20,12,38,23.00
2005,06,20,12,39,23.10
2005,06,20,12,40,23.20
2005,06,20,12,41,23.20
2005,06,20,12,42,23.20
2005,06,20,12,43,23.20
2005,06,20,12,44,23.20
2005,06,20,12,45,23.10
2005,06,20,12,46,23.00
2005,06,20,12,47,22.90
2005,06,20,12,48,23.00
2005,06,20,12,49,23.10
2005,06,20,12,50,23.20
2005,06,20,12,51,23.10
2005,06,20,12,52,23.10
2005,06,20,12,53,23.10
2005,06,20,12,54,23.10
2005,06,20,12,55,23.10
2005,06,20,12,56,23.10
2005,06,20,12,57,23.10
2005,06,20,12,58,23.30
2005,06,20,12,59,23.30
2005,06,20,13,00,23.30
2005,06,20,13,01,23.40
2005,06,20,13,02,23.40
2005,06,20,13,03,23.50
2005,06,20,13,04,23.60
2005,06,20,13,05,23.70
2005,06,20,13,06,23.60
2005,06,20,13,07,23.60
2005,06,20,13,08,23.70
2005,06,20,13,09,23.70
2005,06,20,13,10,23.50
2005,06,20,13,11,23.40
2005,06,20,13,12,23.40
2005,06,20,13,13,23.40
2005,06,20,13,14,23.40
2005,06,20,13,15,23.40
2005,06,20,13,16,23.30
2005,06,20,13,17,23.30
2005,06,20,13,18,23.30
2005,06,20,13,19,23.30
2005,06,20,13,20,23.30
2005,06,20,13,21,23.30
2005,06,20,13,22,23.30
2005,06,20,13,23,23.30
2005,06,20,13,24,23.20
2005,06,20,13,25,23.20
2005,06,20,13,26,23.30
2005,06,20,13,27,23.30
2005,06,20,13,28,23.30
2005,06,20,13,29,23.30
2005,06,20,13,30,23.40
2005,06,20,13,31,23.50
2005,06,20,13,32,23.70
2005,06,20,13,33,23.80
2005,06,20,13,34,23.90
2005,06,20,13,35,23.90
2005,06,20,13,36,23.90
2005,06,20,13,37,24.00
2005,06,20,13,38,24.10
2005,06,20,13,39,24.10
2005,06,20,13,40,24.10
2005,06,20,13,41,24.10
2005,06,20,13,42,24.10
2005,06,20,13,43,24.10
2005,06,20,13,44,24.10
2005,06,20,13,45,24.10
2005,06,20,13,46,24.10
2005,06,20,13,47,24.10
2005,06,20,13,48,24.20
2005,06,20,13,49,24.30
2005,06,20,13,50,24.30
2005,06,20,13,51,24.30
2005,06,20,13,52,24.30
2005,06,20,13,53,24.20
2005,06,20,13,54,24.20
2005,06,20,13,55,24.30
2005,06,20,13,56,24.20
2005,06,20,13,57,24.10
2005,06,20,13,58,24.10
2005,06,20,13,59,24.10
2005,06,20,14,00,24.20
2005,06,20,14,01,24.30
2005,06,20,14,02,24.30
2005,06,20,14,03,24.30
2005,06,20,14,04,24.40
2005,06,20,14,05,24.30
2005,06,20,14,06,24.10
2005,06,20,14,07,24.20
2005,06,20,14,08,24.30
2005,06,20,14,09,24.40
2005,06,20,14,10,24.40
2005,06,20,14,11,24.40
2005,06,20,14,12,24.40
2005,06,20,14,13,24.40
2005,06,20,14,14,24.30
2005,06,20,14,15,24.20
2005,06,20,14,16,24.20
2005,06,20,14,17,24.20
2005,06,20,14,18,24.10
2005,06,20,14,19,24.10
2005,06,20,14,20,24.10
2005,06,20,14,21,24.10
2005,06,20,14,22,24.20
2005,06,20,14,23,24.40
2005,06,20,14,24,24.60
2005,06,20,14,25,24.60
2005,06,20,14,26,24.60
2005,06,20,14,27,24.60
2005,06,20,14,28,24.60
2005,06,20,14,29,24.60
2005,06,20,14,30,24.70
2005,06,20,14,31,24.70
2005,06,20,14,32,24.80
2005,06,20,14,33,24.80
2005,06,20,14,34,24.90
2005,06,20,14,35,25.10
2005,06,20,14,36,25.10
2005,06,20,14,37,25.10
2005,06,20,14,38,25.10
2005,06,20,14,39,25.10
2005,06,20,14,40,25.10
2005,06,20,14,41,25.10
2005,06,20,14,42,25.20
2005,06,20,14,43,25.20
2005,06,20,14,44,25.30
2005,06,20,14,45,25.30
2005,06,20,14,46,25.30
2005,06,20,14,47,25.30
2005,06,20,14,48,25.30
2005,06,20,14,49,25.30
2005,06,20,14,50,25.20
2005,06,20,14,51,25.00
2005,06,20,14,52,24.90
2005,06,20,14,53,24.80
2005,06,20,14,54,24.80
2005,06,20,14,55,24.80
2005,06,20,14,56,24.90
2005,06,20,14,57,25.10
2005,06,20,14,58,25.20
2005,06,20,14,59,25.20
2005,06,20,15,00,25.20
2005,06,20,15,01,25.20
2005,06,20,15,02,25.20
2005,06,20,15,03,25.10
2005,06,20,15,04,25.00
2005,06,20,15,05,24.90
2005,06,20,15,06,24.80
2005,06,20,15,07,24.80
2005,06,20,15,08,24.80
2005,06,20,15,09,24.80
2005,06,20,15,10,24.80
2005,06,20,15,11,24.80
2005,06,20,15,12,24.80
2005,06,20,15,13,24.70
2005,06,20,15,14,24.70
2005,06,20,15,15,24.60
2005,06,20,15,16,24.70
2005,06,20,15,17,24.70
2005,06,20,15,18,24.70
2005,06,20,15,19,24.70
2005,06,20,15,20,24.60
2005,06,20,15,21,24.70
2005,06,20,15,22,24.80
2005,06,20,15,23,24.80
2005,06,20,15,24,24.70
2005,06,20,15,25,24.70
2005,06,20,15,26,24.80
2005,06,20,15,27,24.90
2005,06,20,15,28,24.90
2005,06,20,15,29,24.80
2005,06,20,15,30,24.80
2005,06,20,15,31,24.70
2005,06,20,15,32,24.80
2005,06,20,15,33,24.80
2005,06,20,15,34,24.80
2005,06,20,15,35,24.80
2005,06,20,15,36,24.90
2005,06,20,15,37,25.00
2005,06,20,15,38,25.20
2005,06,20,15,39,25.30
2005,06,20,15,40,25.30
2005,06,20,15,41,25.30
2005,06,20,15,42,25.20
2005,06,20,15,43,25.20
2005,06,20,15,44,25.30
2005,06,20,15,45,25.30
2005,06,20,15,46,25.30
2005,06,20,15,47,25.20
2005,06,20,15,48,25.30
2005,06,20,15,49,25.30
2005,06,20,15,50,25.40
2005,06,20,15,51,25.40
2005,06,20,15,52,25.40
2005,06,20,15,53,25.40
2005,06,20,15,54,25.30
2005,06,20,15,55,25.30
2005,06,20,15,56,25.40
2005,06,20,15,57,25.40
2005,06,20,15,58,25.40
2005,06,20,15,59,25.40
2005,06,20,16,00,25.40
2005,06,20,16,01,25.40
2005,06,20,16,02,25.50
2005,06,20,16,03,25.50
2005,06,20,16,04,25.50
2005,06,20,16,05,25.50
2005,06,20,16,06,25.50
2005,06,20,16,07,25.50
2005,06,20,16,08,25.40
2005,06,20,16,09,25.40
2005,06,20,16,10,25.40
2005,06,20,16,11,25.50
2005,06,20,16,12,25.60
2005,06,20,16,13,25.70
2005,06,20,16,14,25.70
2005,06,20,16,15,25.70
2005,06,20,16,16,25.70
2005,06,20,16,17,25.70
2005,06,20,16,18,25.60
2005,06,20,16,19,25.60
2005,06,20,16,20,25.60
2005,06,20,16,21,25.60
2005,06,20,16,22,25.60
2005,06,20,16,23,25.60
2005,06,20,16,24,25.60
2005,06,20,16,25,25.60
2005,06,20,16,26,25.60
2005,06,20,16,27,25.60
2005,06,20,16,28,25.50
2005,06,20,16,29,25.50
2005,06,20,16,30,25.60
2005,06,20,16,31,25.60
2005,06,20,16,32,25.60
2005,06,20,16,33,25.70
2005,06,20,16,34,25.70
2005,06,20,16,35,25.70
2005,06,20,16,36,25.70
2005,06,20,16,37,25.70
2005,06,20,16,38,25.70
2005,06,20,16,39,25.70
2005,06,20,16,40,25.60
2005,06,20,16,41,25.70
2005,06,20,16,42,25.70
2005,06,20,16,43,25.70
2005,06,20,16,44,25.80
2005,06,20,16,45,25.70
2005,06,20,16,46,25.70
2005,06,20,16,47,25.70
2005,06,20,16,48,25.80
2005,06,20,16,49,25.70
2005,06,20,16,50,25.70
2005,06,20,16,51,25.70
2005,06,20,16,52,25.70
2005,06,20,16,53,25.70
2005,06,20,16,54,25.70
2005,06,20,16,55,25.80
2005,06,20,16,56,25.80
2005,06,20,16,57,25.80
2005,06,20,16,58,25.80
2005,06,20,16,59,25.80
2005,06,20,17,00,25.80
2005,06,20,17,01,25.80
2005,06,20,17,02,25.90
2005,06,20,17,03,25.90
2005,06,20,17,04,26.00
2005,06,20,17,05,26.10
2005,06,20,17,06,26.10
2005,06,20,17,07,26.10
2005,06,20,17,08,26.20
2005,06,20,17,09,26.20
2005,06,20,17,10,26.10
2005,06,20,17,11,26.00
2005,06,20,17,12,26.10
2005,06,20,17,13,26.00
2005,06,20,17,14,26.00
2005,06,20,17,15,26.00
2005,06,20,17,16,26.10
2005,06,20,17,17,26.10
2005,06,20,17,18,26.10
2005,06,20,17,19,26.10
2005,06,20,17,20,26.10
2005,06,20,17,21,26.10
2005,06,20,17,22,26.10
2005,06,20,17,23,26.20
2005,06,20,17,24,26.30
2005,06,20,17,25,26.30
2005,06,20,17,26,26.30
2005,06,20,17,27,26.30